Location: Bazugues
(43.4465°N, 0.3432°E)
Time: 14:58:04
(UTC+00:00)

ISS - Pass Details

Date: 12 January 2026
Orbit: 413 x 428 km, 51.6° (Epoch: 18 February)

Event Time Altitude Azimuth Distance (km) Brightness Sun altitude
Rises 18:06:02 0° 215° (SW) 2,346 0.9 -14.5°
Reaches altitude 10° 18:08:13 10° 206° (SSW) 1,490 -0.4 -14.8°
Maximum altitude 18:11:17 34° 139° (SE) 707 -2.9 -15.4°
Enters shadow 18:12:03 30° 109° (ESE) 780 -2.9 -15.5°
